Starlink 35527

operational
NORAD ID: 66091 Int'l Des: 2025-236 Owner: SPXS Country: US Constellation: starlink
NOTLE

Über Starlink 35527

Beschreibung wird geladen...

Live-Position

3D-Globus wird geladen...

Nächste Überflüge

Höhenverlauf

Altitude vs Time

uPlot chart will show altitude changes over time

Zweizeiliger Elementsatz

1 66091C 25236G 25293.06298611 .00552030 00000+0 84611-3 0 2938
2 66091 53.1612 48.3562 0008621 263.6920 244.4964 16.02994751 13
Epoch: 20. Okt. 2025 • Age: 19 hours

Aktueller Status

Höhe 275.1 km
Geschwindigkeit 7.75 km/s
Subsatellitenpunkt 50.57°N, 159.22°W
Startdatum 19. Okt. 2025
Alter 1 days
Typ internet

Technische Details

Klassifizierung Payload
Masse 575.00 kg
Trockenmasse 530.00 kg
Gesamtmasse 575.00 kg
Länge 0.30 m
Durchmesser 4.10 m
Spannweite 29.00 m
Form Box + pan
Hersteller SPXS
Bus-Typ Starlink V2MO
Phasenstatus In Orbit
Besitzer/Staat SPXS/US

Große Konstellationen

Loading constellations...